W4SNA-4 Weather Reports


Display with metric or nautical units.
time (UTC)temp
F
wind
direction
speed
MPH
gust
MPH
rain 1hr
in
rain 24hr
in
rain mn
in
humidity
%
barometer
mb
20260905102117 75 0 0.0 0.0 0.00 0.00 0.00 90 1008.2
20260905101617 75 0 0.0 0.0 0.00 0.00 0.00 90 1008.2
20260905101111 75 0 0.0 0.0 0.00 0.00 0.00 90 1008.2
20260905100615 75 0 0.0 0.0 0.00 0.00 0.00 90 1007.9
20260905100112 75 0 0.0 0.0 0.00 0.00 0.00 90 1007.9
20260905095615 75 0 0.0 0.0 0.00 0.00 0.00 90 1007.9
20260905095119 75 0 0.0 0.0 0.00 0.00 0.00 91 1007.8
20260905094611 75 0 0.0 0.0 0.00 0.00 0.00 91 1007.8
20260905094112 75 0 0.0 0.0 0.00 0.00 0.00 91 1007.8
20260905093612 75 0 0.0 0.0 0.00 0.00 0.00 91 1007.8
20260905093112 75 0 0.0 0.0 0.00 0.00 0.00 91 1007.8
20260905092612 75 0 0.0 0.0 0.00 0.00 0.00 91 1007.8
20260905092113 75 0 0.0 0.0 0.00 0.00 0.00 90 1007.8
20260905091612 75 0 0.0 0.0 0.00 0.00 0.00 89 1007.8
20260905091130 75 0 0.0 0.0 0.00 0.00 0.00 88 1007.8
20260905090616 75 0 0.0 0.0 0.00 0.00 0.00 87 1007.8
20260905090114 76 0 0.0 0.0 0.00 0.00 0.00 87 1007.8
20260905085612 76 0 0.0 0.0 0.00 0.00 0.00 86 1007.8
20260905085116 76 0 0.0 0.0 0.00 0.00 0.00 86 1008.1
20260905084614 76 0 0.0 0.0 0.00 0.00 0.00 86 1008.1
20260905084126 76 0 0.0 0.0 0.00 0.00 0.00 83 1008.1
20260905083616 76 0 0.0 0.0 0.00 0.00 0.00 83 1008.1
20260905083112 76 0 0.0 0.0 0.00 0.00 0.00 83 1008.1
20260905082613 75 0 0.0 0.0 0.00 0.00 0.00 84 1008.1
20260905082113 75 0 0.0 0.0 0.00 0.00 0.00 85 1008.2
20260905081612 76 0 0.0 0.0 0.00 0.00 0.00 86 1008.2
20260905081114 76 0 0.0 0.0 0.00 0.00 0.00 86 1008.2
20260905080612 76 0 0.0 0.0 0.00 0.00 0.00 85 1008.6
20260905080111 76 0 0.0 0.0 0.00 0.00 0.00 85 1008.6
20260905075612 76 0 0.0 0.0 0.00 0.00 0.00 85 1008.6
20260905075111 76 0 0.0 0.0 0.00 0.00 0.00 85 1008.7
20260905074612 76 0 0.0 0.0 0.00 0.00 0.00 85 1008.7
20260905074114 76 0 0.0 0.0 0.00 0.00 0.00 84 1008.7
20260905073611 76 0 0.0 0.0 0.00 0.00 0.00 83 1008.7
20260905073112 76 0 0.0 0.0 0.00 0.00 0.00 83 1008.7
20260905072115 76 0 0.0 0.0 0.00 0.00 0.00 85 1008.7
20260905071615 76 0 0.0 0.0 0.00 0.00 0.00 86 1008.7
20260905071115 76 0 0.0 0.0 0.00 0.00 0.00 86 1008.7
20260905070615 76 0 0.0 0.0 0.00 0.00 0.00 87 1009.1
20260905070115 76 0 0.0 0.0 0.00 0.00 0.00 88 1009.1
20260905065615 77 0 0.0 0.0 0.00 0.00 0.00 88 1009.1
20260905065115 77 0 0.0 0.0 0.00 0.00 0.00 88 1009.2
20260905064617 77 0 0.0 0.0 0.00 0.00 0.00 87 1009.2
20260905064125 77 0 0.0 0.0 0.00 0.00 0.00 86 1009.2
20260905063618 77 0 0.0 0.0 0.00 0.00 0.00 86 1009.5
20260905063115 78 0 0.0 0.0 0.00 0.00 0.00 85 1009.5
20260905062616 78 0 0.0 0.0 0.00 0.00 0.00 84 1009.5
20260905062117 78 0 0.0 0.0 0.00 0.00 0.00 84 1009.6
20260905061616 78 0 0.0 0.0 0.00 0.00 0.00 83 1009.6
20260905061121 78 0 0.0 0.0 0.00 0.00 0.00 83 1009.6
20260905060615 79 0 0.0 0.0 0.00 0.00 0.00 83 1009.7
20260905060115 79 0 0.0 0.0 0.00 0.00 0.00 82 1009.7
20260905055622 79 0 0.0 0.0 0.00 0.00 0.00 82 1009.7
20260905055116 79 0 0.0 0.0 0.00 0.00 0.00 82 1009.8
20260905054615 79 0 0.0 0.0 0.00 0.00 0.00 82 1009.8
20260905054115 79 0 0.0 0.0 0.00 0.00 0.00 82 1009.8
20260905053615 79 0 0.0 0.0 0.00 0.00 0.00 82 1009.9
20260905053115 80 0 0.0 0.0 0.00 0.00 0.00 82 1009.9
20260905052621 80 0 0.0 0.0 0.00 0.00 0.00 82 1009.9
20260905052115 79 0 0.0 0.0 0.00 0.00 0.00 82 1010.3
20260905051619 79 0 0.0 0.0 0.00 0.00 0.00 82 1010.3
20260905051115 79 0 0.0 0.0 0.00 0.00 0.00 83 1010.3
20260905050616 79 0 0.0 0.0 0.00 0.00 0.00 83 1010.3
20260905050115 79 0 0.0 0.0 0.00 0.00 0.00 82 1010.3
20260905045615 80 0 0.0 0.0 0.00 0.00 0.00 82 1010.3
20260905045115 80 0 0.0 0.0 0.00 0.00 0.00 80 1010.3
20260905044615 81 0 0.0 0.0 0.00 0.00 0.00 79 1010.3
20260905044123 81 0 0.0 0.0 0.00 0.00 0.00 78 1010.3
20260905043615 81 0 0.0 0.0 0.00 0.00 0.00 77 1010.3
20260905043114 82 0 0.0 0.0 0.00 0.00 0.00 77 1010.3
20260905042615 82 0 0.0 0.0 0.00 0.00 0.00 76 1010.3
20260905042114 82 0 0.0 0.0 0.00 0.00 0.00 76 1010.4
20260905041620 82 0 0.0 0.0 0.00 0.00 0.00 76 1010.4
20260905040753 82 0 0.0 0.0 0.00 0.00 0.00 76 1010.3
20260905040253 82 0 0.0 0.0 0.00 0.00 0.00 77 1010.3
20260905035752 82 0 0.0 0.0 0.00 0.00 0.00 77 1010.3
20260905035253 82 0 0.0 0.0 0.00 0.00 0.00 77 1009.9
20260905033836 82 0 0.0 0.0 0.00 0.00 0.00 77 1009.9
20260905033337 82 0 0.0 0.0 0.00 0.00 0.00 77 1009.9
20260905032835 82 0 0.0 0.0 0.00 0.00 0.00 77 1009.9
20260905032336 82 0 0.0 0.0 0.00 0.00 0.00 77 1009.9
20260905031916 82 0 0.0 0.0 0.00 0.00 0.00 77 1009.9
20260905031834 82 0 0.0 0.0 0.00 0.00 0.00 77 1009.9
20260905031336 82 0 0.0 0.0 0.00 0.00 0.00 77 1009.9
20260905030834 82 0 0.0 0.0 0.00 0.00 0.00 77 1009.8
20260905030335 82 0 0.0 0.0 0.00 0.00 0.00 77 1009.8
20260905025834 82 0 0.0 0.0 0.00 0.00 0.00 77 1009.8
20260905025335 82 0 0.0 0.0 0.00 0.00 0.00 77 1009.8
20260905024834 82 0 0.0 0.0 0.00 0.00 0.00 77 1009.8
20260905024334 82 0 0.0 0.0 0.00 0.00 0.00 77 1009.8
20260905023404 82 0 0.0 0.0 0.00 0.00 0.00 77 1010.1
20260905022904 82 0 0.0 0.0 0.00 0.00 0.00 77 1010.1
20260905022407 82 0 0.0 0.0 0.00 0.00 0.00 77 1010.1
20260905021906 82 0 0.0 0.0 0.00 0.00 0.00 77 1010.1
20260905021405 82 0 0.0 0.0 0.00 0.00 0.00 77 1010.1
20260905020904 82 0 0.0 0.0 0.00 0.00 0.00 77 1009.8
20260905020418 82 0 0.0 0.0 0.00 0.00 0.00 77 1009.8
20260905015906 82 0 0.0 0.0 0.00 0.00 0.00 77 1009.8
20260905015403 82 0 0.0 0.0 0.00 0.00 0.00 77 1009.8
20260905014906 82 0 0.0 0.0 0.00 0.00 0.00 77 1009.8
20260905014402 83 0 0.0 0.0 0.00 0.00 0.00 77 1009.8
20260905013902 83 0 0.0 0.0 0.00 0.00 0.00 77 1009.7
20260905013405 83 0 0.0 0.0 0.00 0.00 0.00 76 1009.7
20260905012901 83 0 0.0 0.0 0.00 0.00 0.00 76 1009.7
20260905012403 83 0 0.0 0.0 0.00 0.00 0.00 75 1009.8
20260905011907 83 0 0.0 0.0 0.00 0.00 0.00 75 1009.8
20260905011403 83 0 0.0 0.0 0.00 0.00 0.00 74 1009.8
20260905010904 83 0 0.0 0.0 0.00 0.00 0.00 74 1009.7
20260905010405 83 0 0.0 0.0 0.00 0.00 0.00 73 1009.7
20260905005904 83 0 0.0 0.0 0.00 0.00 0.00 73 1009.7
20260905005405 83 0 0.0 0.0 0.00 0.00 0.00 73 1009.8
20260905004916 84 0 0.0 1.0 0.00 0.00 0.00 73 1009.8
20260905004404 84 0 0.0 1.0 0.00 0.00 0.00 73 1009.8
20260905003905 84 0 0.0 0.0 0.00 0.00 0.00 73 1009.8
20260905003405 84 0 0.0 0.0 0.00 0.00 0.00 73 1009.8
20260905002910 84 0 0.0 0.0 0.00 0.00 0.00 73 1009.8
20260905002405 84 0 0.0 2.0 0.00 0.00 0.00 73 1009.8
20260905001902 84 0 0.0 2.0 0.00 0.00 0.00 73 1009.8
20260905001401 84 0 0.0 1.0 0.00 0.00 0.00 72 1009.8
20260905000902 85 0 0.0 0.0 0.00 0.00 0.00 72 1010.1
20260905000414 85 0 0.0 0.0 0.00 0.00 0.00 72 1010.1
20260904235901 85 0 0.0 0.0 0.00 0.00 0.00 72 1010.1
20260904235416 86 0 0.0 0.0 0.00 0.00 0.00 71 1009.9
20260904234901 86 0 0.0 0.0 0.00 0.00 0.00 71 1009.9
20260904234407 87 0 0.0 0.0 0.00 0.00 0.00 70 1009.9
20260904233901 87 0 0.0 0.0 0.00 0.00 0.00 70 1010.7
20260904233418 87 0 0.0 0.0 0.00 0.00 0.00 69 1010.7
20260904232414 88 0 0.0 0.0 0.00 0.00 0.00 68 1009.4
20260904231909 89 0 0.0 0.0 0.00 0.00 0.00 67 1009.4
20260904231408 89 0 0.0 0.0 0.00 0.00 0.00 65 1009.4
20260904230907 89 0 0.0 0.0 0.00 0.00 0.00 64 1009.4
20260904230414 90 0 0.0 0.0 0.00 0.00 0.00 64 1009.4
20260904225910 90 0 0.0 0.0 0.00 0.00 0.00 64 1009.4
20260904225404 90 0 0.0 0.0 0.00 0.00 0.00 63 1009.3
20260904224909 91 0 0.0 0.0 0.00 0.00 0.00 62 1009.3
20260904224425 91 0 0.0 0.0 0.00 0.00 0.00 61 1009.3
20260904223905 92 0 0.0 0.0 0.00 0.00 0.00 59 1009.2
20260904223405 92 0 0.0 0.0 0.00 0.00 0.00 56 1009.2
20260904222907 92 0 0.0 0.0 0.00 0.00 0.00 55 1009.2
20260904222405 92 0 0.0 0.0 0.00 0.00 0.00 54 1009.2
20260904221905 93 0 0.0 0.0 0.00 0.00 0.00 53 1009.2
20260904221408 93 0 0.0 0.0 0.00 0.00 0.00 52 1009.2
20260904220904 93 0 0.0 0.0 0.00 0.00 0.00 51 1009.5
20260904220407 93 0 0.0 0.0 0.00 0.00 0.00 48 1009.5
20260904215904 94 0 0.0 0.0 0.00 0.00 0.00 48 1009.5
20260904215405 94 0 0.0 0.0 0.00 0.00 0.00 51 1009.5
20260904214905 94 0 0.0 0.0 0.00 0.00 0.00 52 1009.5
20260904214439 94 0 0.0 0.0 0.00 0.00 0.00 52 1009.5
20260904214408 94 0 0.0 0.0 0.00 0.00 0.00 52 1009.5
20260904213905 94 0 0.0 0.0 0.00 0.00 0.00 53 1009.6
20260904213404 94 0 0.0 0.0 0.00 0.00 0.00 54 1009.6
20260904212905 94 0 0.0 1.0 0.00 0.00 0.00 53 1009.6
20260904212404 94 0 0.0 1.0 0.00 0.00 0.00 51 1010.5
20260904211905 94 0 0.0 0.0 0.00 0.00 0.00 54 1010.5
20260904211404 94 0 0.0 0.0 0.00 0.00 0.00 55 1010.5
20260904210907 94 0 0.0 0.0 0.00 0.00 0.00 58 1009.2
20260904210407 94 0 0.0 0.0 0.00 0.00 0.00 57 1009.2
20260904205905 94 0 0.0 0.0 0.00 0.00 0.00 52 1009.2
20260904205404 94 0 0.0 0.0 0.00 0.00 0.00 56 1009.3
20260904204905 94 0 0.0 0.0 0.00 0.00 0.00 53 1009.3
20260904204405 94 0 0.0 0.0 0.00 0.00 0.00 56 1009.3
20260904203904 94 0 0.0 0.0 0.00 0.00 0.00 55 1010.5
20260904203405 94 0 0.0 0.0 0.00 0.00 0.00 55 1010.5
20260904202907 94 0 0.0 0.0 0.00 0.00 0.00 53 1010.5
20260904202405 94 0 0.0 0.0 0.00 0.00 0.00 52 1010.4
20260904201904 94 0 0.0 0.0 0.00 0.00 0.00 53 1010.4
20260904201408 94 0 0.0 0.0 0.00 0.00 0.00 55 1010.4
20260904200906 95 0 0.0 0.0 0.00 0.00 0.00 57 1010.6
20260904200408 94 0 0.0 0.0 0.00 0.00 0.00 55 1010.6
20260904195905 94 0 0.0 0.0 0.00 0.00 0.00 55 1010.6
20260904195404 94 0 0.0 0.0 0.00 0.00 0.00 54 1010.7
20260904194456 94 0 0.0 0.0 0.00 0.00 0.00 55 1010.7
20260904193459 94 0 0.0 0.0 0.00 0.00 0.00 57 1011.2
20260904193000 94 0 0.0 0.0 0.00 0.00 0.00 57 1011.2
20260904192458 94 0 0.0 0.0 0.00 0.00 0.00 57 1011.6
20260904191957 94 0 0.0 0.0 0.00 0.00 0.00 56 1011.6
20260904191457 94 0 0.0 0.0 0.00 0.00 0.00 56 1011.6
20260904190958 94 0 0.0 0.0 0.00 0.00 0.00 57 1011.7
20260904190459 94 0 0.0 0.0 0.00 0.00 0.00 55 1011.7
20260904185645 94 0 0.0 0.0 0.00 0.00 0.00 55 1011.7
20260904185145 93 0 0.0 0.0 0.00 0.00 0.00 57 1011.9
20260904184646 93 0 0.0 0.0 0.00 0.00 0.00 58 1011.9
20260904184145 93 0 0.0 0.0 0.00 0.00 0.00 60 1011.9
20260904183717 93 0 0.0 0.0 0.00 0.00 0.00 57 1012.2
20260904183645 93 0 0.0 0.0 0.00 0.00 0.00 57 1012.2
20260904183145 93 0 0.0 0.0 0.00 0.00 0.00 58 1012.2
20260904182645 93 0 0.0 0.0 0.00 0.00 0.00 60 1012.2
20260904182145 93 0 0.0 0.0 0.00 0.00 0.00 61 1012.3
20260904181650 93 0 0.0 0.0 0.00 0.00 0.00 60 1012.3
20260904181145 93 0 0.0 0.0 0.00 0.00 0.00 62 1012.3
20260904180645 93 0 0.0 0.0 0.00 0.00 0.00 60 1012.3
20260904180145 93 0 0.0 0.0 0.00 0.00 0.00 61 1012.3
20260904175650 92 0 0.0 0.0 0.00 0.00 0.00 62 1012.3
20260904175145 92 0 0.0 0.0 0.00 0.00 0.00 61 1012.7
20260904174646 92 0 0.0 0.0 0.00 0.00 0.00 61 1012.7
20260904174145 91 0 0.0 0.0 0.00 0.00 0.00 61 1012.7
20260904173645 91 0 0.0 0.0 0.00 0.00 0.00 62 1012.8
20260904173212 91 0 0.0 0.0 0.00 0.00 0.00 63 1012.8
20260904172645 91 0 0.0 0.0 0.00 0.00 0.00 64 1012.8
20260904172145 91 0 0.0 0.0 0.00 0.00 0.00 64 1012.9
20260904171646 91 0 0.0 0.0 0.00 0.00 0.00 65 1012.9
20260904171144 91 0 0.0 0.0 0.00 0.00 0.00 65 1012.9
20260904170653 91 0 0.0 0.0 0.00 0.00 0.00 65 1013.1
20260904170145 91 0 0.0 0.0 0.00 0.00 0.00 64 1013.1
20260904165647 90 0 0.0 0.0 0.00 0.00 0.00 64 1013.1
20260904165145 90 0 0.0 0.0 0.00 0.00 0.00 63 1013.3
20260904164645 90 0 0.0 0.0 0.00 0.00 0.00 65 1013.3
20260904164145 90 0 0.0 0.0 0.00 0.00 0.00 66 1013.3
20260904163645 90 0 0.0 0.0 0.00 0.00 0.00 67 1013.4
20260904163145 90 0 0.0 0.0 0.00 0.00 0.00 69 1013.4
20260904162648 90 0 0.0 0.0 0.00 0.00 0.00 68 1013.4
20260904162145 90 0 0.0 0.0 0.00 0.00 0.00 69 1013.4
20260904161646 90 0 0.0 0.0 0.00 0.00 0.00 68 1013.4
20260904161145 90 0 0.0 0.0 0.00 0.00 0.00 68 1013.4
20260904160645 90 0 0.0 0.0 0.00 0.00 0.00 68 1013.5
20260904160145 90 0 0.0 0.0 0.00 0.00 0.00 68 1013.5
20260904155645 90 0 0.0 0.0 0.00 0.00 0.00 70 1013.5
20260904155145 90 0 0.0 0.0 0.00 0.00 0.00 70 1013.6
20260904154644 90 0 0.0 0.0 0.00 0.00 0.00 73 1013.6
20260904154145 89 0 0.0 0.0 0.00 0.00 0.00 71 1013.6
20260904153645 89 0 0.0 0.0 0.00 0.00 0.00 72 1013.5
20260904152734 88 0 0.0 0.0 0.00 0.00 0.00 72 1013.5
20260904152234 88 0 0.0 0.0 0.00 0.00 0.00 72 1012.7
20260904151735 88 0 0.0 0.0 0.00 0.00 0.00 73 1012.7
20260904151234 88 0 0.0 0.0 0.00 0.00 0.00 73 1012.7
20260904150735 87 0 0.0 0.0 0.00 0.00 0.00 73 1012.7
20260904150239 87 0 0.0 0.0 0.00 0.00 0.00 73 1012.7
20260904145737 87 0 0.0 0.0 0.00 0.00 0.00 75 1012.7
20260904145235 86 0 0.0 0.0 0.00 0.00 0.00 76 1012.9
20260904144734 86 0 0.0 0.0 0.00 0.00 0.00 77 1012.9
20260904144234 85 0 0.0 0.0 0.00 0.00 0.00 77 1012.9
20260904143738 85 0 0.0 0.0 0.00 0.00 0.00 80 1013.0
20260904143234 84 0 0.0 0.0 0.00 0.00 0.00 80 1013.0
20260904142735 84 0 0.0 0.0 0.00 0.00 0.00 81 1013.0
20260904142235 83 0 0.0 0.0 0.00 0.00 0.00 82 1012.8
20260904141255 82 0 0.0 0.0 0.00 0.00 0.00 84 1012.8
20260904140752 81 0 0.0 0.0 0.00 0.00 0.00 84 1012.7
20260904140251 81 0 0.0 0.0 0.00 0.00 0.00 85 1012.7
20260904135752 80 0 0.0 0.0 0.00 0.00 0.00 86 1012.7
20260904135252 80 0 0.0 0.0 0.00 0.00 0.00 87 1012.7
20260904134752 79 0 0.0 0.0 0.00 0.00 0.00 87 1012.7
20260904134259 79 0 0.0 0.0 0.00 0.00 0.00 88 1012.7
20260904133751 79 0 0.0 0.0 0.00 0.00 0.00 88 1012.6
20260904133255 78 0 0.0 0.0 0.00 0.00 0.00 88 1012.6
20260904133252 79 0 0.0 0.0 0.00 0.00 0.00 88 1012.6
20260904132752 78 0 0.0 0.0 0.00 0.00 0.00 88 1012.6
20260904131937 78 0 0.0 0.0 0.00 0.00 0.00 89 1012.5
20260904130921 77 0 0.0 0.0 0.00 0.00 0.00 89 1012.5
20260904130419 77 0 0.0 0.0 0.00 0.00 0.00 89 1012.5
20260904125925 77 0 0.0 0.0 0.00 0.00 0.00 89 1012.5
20260904124925 77 0 0.0 0.0 0.00 0.00 0.00 89 1012.4
20260904124423 77 0 0.0 0.0 0.00 0.00 0.00 89 1012.4
20260904123919 77 0 0.0 0.0 0.00 0.00 0.00 90 1012.5
20260904123419 76 0 0.0 0.0 0.00 0.00 0.00 90 1012.5
20260904122921 76 0 0.0 0.0 0.00 0.00 0.00 90 1012.5
20260904122419 76 0 0.0 0.0 0.00 0.00 0.00 90 1012.5
20260904121925 76 0 0.0 0.0 0.00 0.00 0.00 90 1012.5
20260904121428 76 0 0.0 0.0 0.00 0.00 0.00 90 1012.5
20260904120918 76 0 0.0 0.0 0.00 0.00 0.00 90 1012.5
20260904120423 76 0 0.0 0.0 0.00 0.00 0.00 90 1012.5
20260904115925 76 0 0.0 0.0 0.00 0.00 0.00 90 1012.5
20260904115419 76 0 0.0 0.0 0.00 0.00 0.00 90 1012.4
20260904114923 76 0 0.0 0.0 0.00 0.00 0.00 91 1012.4
20260904114423 76 0 0.0 0.0 0.00 0.00 0.00 91 1012.4
20260904113921 76 0 0.0 0.0 0.00 0.00 0.00 91 1012.2
20260904113424 76 0 0.0 0.0 0.00 0.00 0.00 91 1012.2
20260904112923 76 0 0.0 0.0 0.00 0.00 0.00 91 1012.2
20260904112419 75 0 0.0 0.0 0.00 0.00 0.00 91 1012.0
20260904111922 75 0 0.0 0.0 0.00 0.00 0.00 91 1012.0
20260904111419 75 0 0.0 0.0 0.00 0.00 0.00 91 1012.0
20260904110919 75 0 0.0 0.0 0.00 0.00 0.00 91 1011.9
20260904110423 75 0 0.0 0.0 0.00 0.00 0.00 91 1011.9
20260904110204 76 0 0.0 0.0 0.00 0.00 0.00 90 1011.9
20260904105922 76 0 0.0 0.0 0.00 0.00 0.00 90 1011.9
20260904105419 76 0 0.0 0.0 0.00 0.00 0.00 91 1011.9
20260904104922 76 0 0.0 0.0 0.00 0.00 0.00 90 1011.9
20260904104419 76 0 0.0 0.0 0.00 0.00 0.00 90 1011.9
20260904103922 76 0 0.0 0.0 0.00 0.00 0.00 90 1011.9
20260904103424 76 0 0.0 0.0 0.00 0.00 0.00 90 1011.9
20260904102923 76 0 0.0 0.0 0.00 0.00 0.00 90 1011.9
20260904102419 76 0 0.0 0.0 0.00 0.00 0.00 90 1011.9